Location: Albany
(35.0000°S, 118.0000°E)
Time: 06:37:24
(UTC-04:00)

ISS - All Passes

Search period start: 29 March 2015 00:00
Search period end: 08 April 2015 00:00
Orbit: 396 x 406 km, 51.6° (Epoch: 28 March)

Date Brightness Start Highest point End Pass type
(mag) Time Alt. Az. Time Alt. Az. Time Alt. Az.
29 Mar - 04:07:18 10° S 04:09:10 14° SSE 04:11:05 10° ESE daylight
29 Mar - 05:42:37 10° SW 05:45:57 74° NW 05:49:15 10° NE daylight
29 Mar - 20:44:14 10° NNE 20:46:15 16° NE 20:48:23 10° E daylight
29 Mar - 22:19:21 10° WNW 22:22:27 38° SW 22:25:35 10° SSE daylight
30 Mar - 04:49:17 10° SW 04:52:33 49° SE 04:55:47 10° ENE daylight
30 Mar - 06:27:04 10° W 06:28:40 13° NW 06:30:07 10° NNW visible
30 Mar - 21:25:43 10° NW 21:28:59 85° SW 21:32:19 10° SE daylight
30 Mar - 23:04:26 10° SW 23:05:53 12° SSW 23:07:17 10° S daylight
31 Mar - 03:56:09 10° SSW 03:59:00 26° SE 04:01:52 10° E daylight
31 Mar - 05:32:31 10° WSW 05:35:23 27° NW 05:38:13 10° N daylight
31 Mar - 20:32:32 10° NNW 20:35:37 41° NE 20:38:44 10° ESE daylight
31 Mar - 22:09:41 10° W 22:12:09 19° SSW 22:14:37 10° SSE daylight
01 Apr - 03:03:14 10° S 03:05:20 16° SSE 03:07:28 10° ESE daylight
01 Apr - 04:38:44 10° SW 04:42:02 61° NW 04:45:18 10° NE daylight
01 Apr - 19:39:57 10° N 19:42:16 19° NE 19:44:41 10° E daylight
01 Apr - 21:15:29 10° WNW 21:18:31 33° SW 21:21:34 10° SSE daylight
02 Apr - 02:11:10 10° SSE 02:11:32 10° SSE 02:11:59 10° SSE daylight
02 Apr - 03:45:16 10° SW 03:48:34 58° SE 03:51:50 10° ENE daylight
02 Apr - 05:23:50 10° WNW 05:24:38 11° NW 05:25:16 10° NW daylight
02 Apr - 20:21:42 10° NW 20:24:57 71° SW 20:28:15 10° SE daylight
02 Apr - 22:00:51 10° SW 22:01:54 11° SSW 22:02:53 10° S daylight
03 Apr - 02:52:00 10° SSW 02:54:57 29° SE 02:57:56 10° E daylight
03 Apr - 04:28:35 10° WSW 04:31:17 22° NW 04:33:55 10° N daylight
03 Apr - 19:28:18 10° NNW 19:31:27 49° NE 19:34:40 10° ESE daylight
03 Apr - 21:05:47 10° WSW 21:08:05 17° SSW 21:10:21 10° SSE daylight
04 Apr - 01:58:57 10° SSW 02:01:13 17° SSE 02:03:33 10° ESE daylight
04 Apr - 03:34:37 10° WSW 03:37:51 50° NW 03:41:03 10° NNE daylight
04 Apr - 18:35:28 10° N 18:38:01 22° NE 18:40:39 10° ESE daylight
04 Apr - 20:11:24 10° W 20:14:19 29° SW 20:17:16 10° SSE daylight
05 Apr - 01:06:23 10° S 01:07:22 11° SSE 01:08:26 10° SE daylight
05 Apr - 02:41:00 10° SW 02:44:19 70° SE 02:47:37 10° NE daylight
05 Apr - 17:44:29 10° NE 17:44:36 10° NE 17:44:53 10° ENE visible
05 Apr - 19:17:25 10° WNW 19:20:39 59° SW 19:23:55 10° SE daylight
05 Apr - 20:57:19 10° SSW 20:57:39 10° SSW 20:57:56 10° SSW daylight
06 Apr - 01:47:36 10° SSW 01:50:39 33° SE 01:53:42 10° ENE daylight
06 Apr - 03:24:25 10° W 03:26:54 19° NW 03:29:19 10° N daylight
06 Apr - 18:23:51 10° NW 18:27:03 59° NE 18:30:18 10° SE daylight
06 Apr - 20:01:37 10° WSW 20:03:44 16° SSW 20:05:48 10° S daylight
07 Apr - 00:54:25 10° SSW 00:56:51 19° SSE 00:59:20 10° E daylight
07 Apr - 02:30:14 10° WSW 02:33:24 42° NW 02:36:32 10° NNE daylight
07 Apr - 17:30:47 10° N 17:33:31 25° NE 17:36:19 10° ESE visible
07 Apr - 19:07:03 10° W 19:09:52 26° SW 19:12:42 10° SSE daylight
